Saturday, November 01, 2014
03:57 UTC
  |  Log In   |  Register Free
Airport Search:

Skyway Estates Airport
(60G)

Skyway Estates Airport Diagram
No Airport Diagram Available

FAA data valid effective September 18, 2014 - November 13, 2014 (unless otherwise noted).

 
 
 
 
 
 
 
 
 
 
 
 
 
 

Current Aviation Weather for Skyway Estates Airport (60G)

METAR data is unavailable for 60G. The nearest METAR location is at KFPK (7.1 nm SW from 60G).

The most recent METAR observation for KFPK was updated at: 0220
METAR Summary (Translated METAR)
KFPK
010155Z AUTO 35012G26KT 10SM OVC030 01/M04 A3018 RMK AO2 T00081040
(7.1 nm SW from 60G)
K11J
201400Z AUTO 03007KT 010V070 10SM CLR 16/11 A3018 RMK AO2 T01620107
(10.1 nm SE from 60G)
TAF
No TAF information found within 50 nm of KFPK
  Airport Weather Conditions for 60G

Current weather conditions are
not available for 60G


The nearest NOAA weather station
is at FPK, (7.1 nm SW from 60G)
  
 Current Weather at FPK
33° F
Overcast
North winds at 16.1 mph
FPK NOAA Radar

Pressure: 30.20 in
Humidity: 69%
Wind: from the North at 16.1 gusting to 27.6 MPH (14 gusting to 24 KT)
Dew Point: 24.1°F
Visibility: 10.00 mi


Airport Weather Forecast for 60G

Translated METAR and TAF for KFPK
Translated METAR for KFPK (0352 UTC 01 November 2014)
found at http://aviationweather.gov/adds/metars/
 
METAR text: KFPK 010335Z AUTO 36012G22KT 10SM OVC030 01/M04 A3020 RMK AO2 T00071044
Conditions at: KFPK (CHARLOTTE , MI, US) observed 0335 UTC 01 November 2014
Temperature: 0.7°C (33°F)
Dewpoint: -4.4°C (24°F) [RH = 69%]
Pressure (altimeter): 30.20 inches Hg (1022.8 mb)
Winds: from the N (360 degrees) at 14 MPH (12 knots; 6.2 m/s)
gusting to 25 MPH (22 knots; 11.4 m/s)
Visibility: 10 or more miles (16+ km)
Ceiling: 3000 feet AGL
Clouds: overcast cloud deck at 3000 feet AGL
Weather: automated observation with no human augmentation;
there may or may not be significant weather present at this time
Translated TAF for KFPK

There is no translated TAF available for this airport

Find All Airport Services Find A Hotel Find A Rental Car Find A Golf Course Find A Restaurant $100 Hamburger



FBO's on the Field
FBO Company Facility Photos Services Transportation Aviation Fuel Prices: Prices include tax
Catering Weather Repair Courtesy Rental Type 100LL JetA JetA+ MOGAS 8087
 
Add another FBO Facility Photos Catering Weather Repair Courtesy Rental Type 100LL JetA JetA+ MOGAS 8087
Services Transportation Aviation Fuel Prices: Prices include tax
There are no FBO's currently reporting fuel at 60G. List your FBO now


model-print
model-print
model-print
model-print